sat.trackr.live / text

‹ back to catalog

THAICOM 8

NORAD 41552 · 2016-031A

PAYLOAD ACTIVE UNKNOWN

§ Identity

Operator
Country
THAI
Launch date
2016-05-27
Launch site
AFETR
Launch vehicle
Mass (kg)
RCS (m²)
8.01

Purposes: comms

External: N2YO · Heavens-Above · Gunter

§ Orbital elements

Epoch: 2026-09-13T02:15:11.518848Z

Period
1,436.11 min
Inclination
0.0705°
Eccentricity
0.0001147
Mean motion
1.00270868 rev/d
Perigee alt
35,782.0 km
Apogee alt
35,791.7 km
Semi-major
42,165.0 km
B*
0.0000e+0
RAAN
21.3655°
Arg perigee
81.7231°
Mean anomaly
1.3270°
Rev number
3,760

§ Raw data

THAICOM 81 41552U 16031A   26256.09388332 -.00000133  00000+0  00000+0 0  99912 41552   0.0705  21.3655 0001147  81.7231   1.3270  1.00270868 37609

JSON: /api/v1/satellites/41552 · /tle

For live sub-satellite position, see the globe view (requires WebGL).

§ Visibility from observer

Set your observer location to see the next 7 days of passes ≥ 10°. The values pass through the URL so the page stays shareable.

No JS? Fill the form by hand. The geolocation button needs JavaScript.